Location: Lucerne Valley
(34.4439°N, 116.9669°E)
Time: 13:31:34
(UTC-07:00)

Envisat - Pass Details

Date: 14 October 2017
Orbit: 764 x 766 km, 98.2° (Epoch: 18 October)

Event Time Altitude Azimuth Distance (km) Brightness Sun altitude
Exits shadow 03:58:17 15° 42° (NE) 1,973 4.8 -17.1°
Drops below altitude 10° 03:59:50 10° 26° (NNE) 2,304 5.2 -17.4°
Sets 04:02:51 0° 7° (N) 3,234 6.2 -18.0°
